軌道要素
Epoch 2023 Feb. 25.0 TT = JDT 2460000.5
T 2023 Mar. 18.72608 TT Rudenko
q 1.8347239 (2000.0) P Q
z +0.0043612 Peri. 159.24936 -0.71777660 -0.21313544
+/-0.0000019 Node 318.30787 +0.41013491 +0.63988695
e 0.9919983 Incl. 94.74322 +0.56265985 -0.73832105
>From 451 observations 2022 Dec. 15-2023 May 16, mean residual 0".5.
|